Flag for Germany Weather past 2 weeks in Delmenhorst, Lower Saxony, Germany

43 °F

Passing clouds.

Feels Like: 39 °F
Forecast: 41 / 47 °F
Wind: 6 mph from Northeast

Location: Bremen Airport

Current Time: Oct 14, 2015 at 6:55:31 AM

Latest Report: Oct 14, 2015 at 6:20 AM

Visibility: 4 mi

Pressure: 30.12 "Hg

Humidity: 93%

Dew point: 41 °F

Location of DelmenhorstLocation

Historic Weather in Delmenhorst — Graph


Delmenhorst temperature yesterday

Maximum temperature yesterday: 45 °F (at 1:50 PM)
Minimum temperature yesterday: 34 °F (at 5:50 AM)
Average temperature yesterday: 40 °F

Past Weeks' High & Low Weather Summary

High64 °F (Oct 3, 2:20 PM)100% (Sep 29, 5:20 AM)30.72 "Hg (Sep 29, 5:20 AM)
Low34 °F (Oct 11, 6:50 AM)43% (Oct 11, 2:50 PM)29.65 "Hg (Oct 6, 9:50 AM)
Average51 °F83%30.16 "Hg
* Reported Sep 29 5:20 AM — Oct 14 5:20 AM, Delmenhorst, Weather by CustomWeather, © 2015

Note: Actual official high and low records may vary slightly from our data, if they occured in-between our weather recording intervals... More about our weather records


Delmenhorst weather history for previous 24 hours

Time TempWeatherWind HumidityBarometerVisibility
5:20 AM
Wed, Oct 14
43 °FFog.5 mph93%30.12 "Hg3 mi
4:50 AM43 °FFog.5 mph93%30.12 "Hg3 mi
4:20 AM43 °FFog.5 mph93%30.12 "Hg3 mi
3:50 AM41 °FFog.No wind100%30.12 "Hg3 mi
3:20 AM43 °FPassing clouds.1 mph93%30.12 "Hg4 mi
2:50 AM41 °FPassing clouds.2 mph100%30.12 "Hg4 mi
2:20 AM43 °FPassing clouds.2 mph93%30.15 "Hg4 mi
1:50 AM43 °FPassing clouds.2 mph93%30.12 "Hg5 mi
1:20 AM41 °FPassing clouds.2 mph100%30.12 "Hg5 mi
12:50 AM41 °FPassing clouds.3 mph93%30.15 "Hg5 mi
12:20 AM41 °FPassing clouds.3 mph93%30.15 "Hg6 mi
11:20 PM
Tue, Oct 13
41 °FPassing clouds.No wind93%30.15 "HgN/A
10:50 PM43 °FPassing clouds.2 mph87%30.15 "HgN/A
10:20 PM41 °FPassing clouds.3 mph93%30.15 "HgN/A
9:50 PM41 °FLight rain. Passing clouds.2 mph93%30.15 "HgN/A
9:20 PM41 °FPartly cloudy.2 mph87%30.15 "HgN/A
8:50 PM41 °FLight rain. Passing clouds.2 mph87%30.15 "HgN/A
8:20 PM41 °FLight rain. Passing clouds.3 mph87%30.15 "HgN/A
7:50 PM43 °FPassing clouds.1 mph76%30.15 "HgN/A
7:20 PM43 °FPartly sunny.2 mph76%30.15 "HgN/A
6:50 PM41 °FPartly sunny.3 mph81%30.15 "HgN/A
6:20 PM43 °FPartly sunny.6 mph71%30.15 "HgN/A
5:50 PM43 °FPartly sunny.7 mph71%30.15 "HgN/A
5:20 PM45 °FBroken clouds.9 mph66%30.15 "HgN/A
4:50 PM45 °FPartly sunny.9 mph66%30.15 "HgN/A
4:20 PM45 °FPartly sunny.12 mph66%30.15 "HgN/A
3:50 PM45 °FBroken clouds.10 mph66%30.15 "HgN/A
3:20 PM43 °FPartly sunny.13 mph66%30.15 "HgN/A
2:50 PM43 °FPartly sunny.14 mph71%30.15 "HgN/A
2:20 PM45 °FPartly sunny.13 mph66%30.15 "HgN/A
1:50 PM45 °FPassing clouds.13 mph66%30.15 "HgN/A
1:20 PM43 °FPassing clouds.14 mph66%30.18 "HgN/A
12:50 PM43 °FPassing clouds.15 mph71%30.18 "HgN/A
12:20 PM43 °FScattered clouds.15 mph71%30.18 "HgN/A
11:50 AM43 °FPartly sunny.14 mph66%30.18 "HgN/A
11:20 AM41 °FPartly sunny.12 mph70%30.18 "HgN/A
10:50 AM39 °FPartly sunny.10 mph81%30.18 "HgN/A
10:20 AM37 °FPartly sunny.8 mph87%30.18 "HgN/A
9:50 AM37 °FPartly sunny.8 mph81%30.18 "HgN/A
9:20 AM36 °FPartly sunny.9 mph87%30.18 "HgN/A
8:50 AM36 °FPartly sunny.9 mph87%30.15 "HgN/A
8:20 AM36 °FPassing clouds.10 mph87%30.15 "HgN/A
7:50 AM36 °FPassing clouds.9 mph87%30.15 "HgN/A
7:20 AM34 °FPassing clouds.9 mph87%30.15 "HgN/A
6:50 AM34 °FClear.10 mph87%30.15 "Hg10 mi
6:20 AM34 °FClear.9 mph87%30.15 "Hg10 mi
Weather by CustomWeather, © 2015

See weather overviewHow to use our weather pages